This is the latest recevied weather packets stored in our database for station/object OK2KJT-11. If no packets are shown the sender has not sent any weather packets the latest 10 day(s).
| Time | Temp. | Humidity | Pressure | Rain* | Wind** | Luminosity | Snow |
|---|---|---|---|---|---|---|---|
| 1788524322 | 21.67° C | 56% | 1018.3 hPa | - | - | - | - |
| 1788523824 | 20.56° C | 59% | 1018.6 hPa | - | - | - | - |
| 1788523722 | 20.56° C | 59% | 1018.6 hPa | - | - | - | - |
| 1788523123 | 20° C | 61% | 1018.7 hPa | - | - | - | - |
| 1788522524 | 20° C | 61% | 1018.8 hPa | - | - | - | - |
| 1788521924 | 20.56° C | 60% | 1018.9 hPa | - | - | - | - |
| 1788521324 | 20.56° C | 60% | 1019 hPa | - | - | - | - |
| 1788520725 | 21.11° C | 59% | 1019 hPa | - | - | - | - |
| 1788520125 | 20.56° C | 61% | 1019.1 hPa | - | - | - | - |
| 1788519525 | 20° C | 63% | 1019.3 hPa | - | - | - | - |
| 1788518925 | 18.89° C | 67% | 1019.4 hPa | - | - | - | - |
| 1788518325 | 18.33° C | 67% | 1019.4 hPa | - | - | - | - |
| 1788517726 | 18.33° C | 67% | 1019.7 hPa | - | - | - | - |
| 1788517126 | 17.78° C | 69% | 1019.6 hPa | - | - | - | - |
| 1788516526 | 17.78° C | 68% | 1019.9 hPa | - | - | - | - |
| 1788515926 | 17.22° C | 68% | 1020.2 hPa | - | - | - | - |
| 1788515327 | 17.22° C | 67% | 1020.2 hPa | - | - | - | - |
| 1788514727 | 17.78° C | 64% | 1020.3 hPa | - | - | - | - |
| 1788514127 | 18.33° C | 63% | 1020.3 hPa | - | - | - | - |
| 1788513527 | 18.89° C | 62% | 1020.4 hPa | - | - | - | - |
| 1788512928 | 19.44° C | 62% | 1020.5 hPa | - | - | - | - |
| 1788512328 | 18.89° C | 64% | 1020.5 hPa | - | - | - | - |
| 1788511756 | 18.89° C | 64% | 1020.5 hPa | - | - | - | - |
| 1788511128 | 18.89° C | 65% | 1020.6 hPa | - | - | - | - |
| 1788510529 | 18.33° C | 67% | 1020.6 hPa | - | - | - | - |
* Rain since midnight (hover to see other rain measurements)
** Current wind speed in m/s (hover to see current wind gust speed)